This is the latest recevied weather packets stored in our database for station/object K0QJ. If no packets are shown the sender has not sent any weather packets the latest 1 day(s).
| Time | Temp. | Humidity | Pressure | Rain* | Wind** | Luminosity | Snow |
|---|---|---|---|---|---|---|---|
| 1778011325 | 7.78° C | 96% | 1011 hPa | 0 mm | 0 m/s | 143 W/m² | - |
| 1778011021 | 8.33° C | 96% | 1011 hPa | 0 mm | 0 m/s | 94 W/m² | - |
| 1778010718 | 8.33° C | 96% | 1011.1 hPa | 0 mm | 0.45 m/s, 332° | 65 W/m² | - |
| 1778010415 | 7.78° C | 96% | 1010.9 hPa | 0 mm | 0 m/s | 80 W/m² | - |
| 1778010111 | 8.33° C | 96% | 1010.9 hPa | 0 mm | 0 m/s | 89 W/m² | - |
| 1778009808 | 8.33° C | 96% | 1010.8 hPa | 0 mm | 0.45 m/s, 346° | 135 W/m² | - |
| 1778009505 | 8.33° C | 96% | 1010.9 hPa | 0 mm | 0 m/s | 109 W/m² | - |
| 1778009204 | 8.33° C | 96% | 1010.8 hPa | 0 mm | 0 m/s | 117 W/m² | - |
| 1778008901 | 8.33° C | 96% | 1010.8 hPa | 0 mm | 0 m/s | 144 W/m² | - |
| 1778008599 | 7.78° C | 96% | 1011.3 hPa | 0 mm | 0 m/s | 158 W/m² | - |
| 1778008297 | 7.78° C | 96% | 1011 hPa | 0 mm | 0 m/s | 74 W/m² | - |
| 1778007993 | 7.78° C | 96% | 1011 hPa | 0 mm | 0 m/s | 117 W/m² | - |
| 1778007687 | 7.78° C | 96% | 1011 hPa | 0 mm | 0.89 m/s, 25° | 119 W/m² | - |
| 1778007385 | 7.78° C | 96% | 1011.2 hPa | 0 mm | 0 m/s | 130 W/m² | - |
| 1778007081 | 7.78° C | 96% | 1011.2 hPa | 0 mm | 0 m/s | 174 W/m² | - |
| 1778006777 | 7.78° C | 96% | 1011.2 hPa | 0 mm | 0 m/s | 166 W/m² | - |
| 1778006474 | 7.78° C | 96% | 1011 hPa | 0 mm | 0 m/s | 167 W/m² | - |
| 1778006171 | 7.78° C | 96% | 1011.2 hPa | 1.27 mm | 0 m/s | 132 W/m² | - |
| 1778005869 | 7.78° C | 96% | 1011.2 hPa | 1.27 mm | 0 m/s | 150 W/m² | - |
| 1778005565 | 7.78° C | 96% | 1011.6 hPa | 0 mm | 0.45 m/s, 11° | 144 W/m² | - |
| 1778005262 | 7.78° C | 96% | 1011.8 hPa | 1.78 mm | 0.89 m/s, 23° | 126 W/m² | - |
| 1778004958 | 7.78° C | 96% | 1011.7 hPa | 1.78 mm | 0 m/s | 111 W/m² | - |
| 1778004656 | 7.78° C | 96% | 1011.5 hPa | 0 mm | 0 m/s | 125 W/m² | - |
| 1778004351 | 7.22° C | 96% | 1011.7 hPa | 0 mm | 0 m/s | 127 W/m² | - |
| 1778004050 | 7.78° C | 96% | 1011.8 hPa | 0 mm | 1.34 m/s, 26° | 162 W/m² | - |
* Rain latest hour (hover to see other rain measurements)
** Current wind speed in m/s (hover to see current wind gust speed)